FW9191 Weather Reports


Display with metric or nautical units.
time (UTC)temp
F
wind
direction
speed
MPH
gust
MPH
rain 1hr
in
rain 24hr
in
rain mn
in
humidity
%
barometer
mb
20260504050439 51 168 4.0 5.0 0.00 0.00 0.00 10 1015.0
20260504045936 51 78 5.0 6.0 0.00 0.00 0.00 10 1014.9
20260504045432 51 326 14.0 18.0 0.00 0.00 0.00 10 1014.9
20260504044928 51 50 12.0 15.0 0.00 0.00 0.00 10 1014.6
20260504044426 52 330 12.0 14.0 0.00 0.00 0.00 10 1014.5
20260504043923 52 353 9.0 13.0 0.00 0.00 0.00 10 1014.4
20260504043420 53 343 7.0 8.0 0.00 0.00 0.00 10 1014.5
20260504042917 53 10 12.0 16.0 0.00 0.00 0.00 10 1014.4
20260504042414 53 20 9.0 13.0 0.00 0.00 0.00 10 1014.3
20260504041910 52 339 5.0 8.0 0.00 0.00 0.00 10 1014.2
20260504041406 52 101 4.0 5.0 0.00 0.00 0.00 10 1014.1
20260504040902 53 211 4.0 5.0 0.00 0.00 0.00 10 1014.1
20260504040400 52 330 7.0 8.0 0.00 0.00 0.00 10 1014.0
20260504035856 52 325 5.0 7.0 0.00 0.00 0.00 10 1013.7
20260504035354 53 3 7.0 8.0 0.00 0.00 0.00 10 1013.9
20260504034850 53 194 3.0 3.0 0.00 0.00 0.00 10 1013.7
20260504034348 55 10 8.0 10.0 0.00 0.00 0.00 10 1013.6
20260504033844 55 158 6.0 7.0 0.00 0.00 0.00 10 1013.4
20260504033343 55 31 5.0 7.0 0.00 0.00 0.00 10 1013.2
20260504032839 55 37 5.0 7.0 0.00 0.00 0.00 10 1013.1
20260504032336 55 103 5.0 7.0 0.00 0.00 0.00 10 1012.8
20260504031833 56 89 3.0 5.0 0.00 0.00 0.00 10 1012.6
20260504031330 56 141 0.0 0.0 0.00 0.00 0.00 10 1012.5
20260504030826 56 21 3.0 5.0 0.00 0.00 0.00 10 1012.3
20260504030324 56 100 2.0 2.0 0.00 0.00 0.00 10 1012.4
20260504025820 56 33 5.0 7.0 0.00 0.00 0.00 10 1012.2
20260504025317 56 41 5.0 7.0 0.00 0.00 0.00 10 1012.1
20260504024813 56 88 5.0 7.0 0.00 0.00 0.00 10 1012.1
20260504024310 56 32 7.0 9.0 0.00 0.00 0.00 10 1011.7
20260504023807 57 358 8.0 8.0 0.00 0.00 0.00 10 1011.5
20260504023303 57 121 4.0 6.0 0.00 0.00 0.00 10 1011.6
20260504022759 57 58 7.0 9.0 0.00 0.00 0.00 10 1011.5
20260504022256 57 3 11.0 15.0 0.00 0.00 0.00 10 1011.6
20260504021752 57 347 8.0 9.0 0.00 0.00 0.00 10 1010.9
20260504021250 58 23 15.0 21.0 0.00 0.00 0.00 10 1011.2
20260504020747 58 17 13.0 16.0 0.00 0.00 0.00 10 1010.8
20260504020243 59 6 13.0 15.0 0.00 0.00 0.00 10 1010.7
20260504015739 60 20 8.0 9.0 0.00 0.00 0.00 10 1010.8
20260504015236 60 359 19.0 23.0 0.00 0.00 0.00 10 1010.6
20260504014732 60 1 10.0 13.0 0.00 0.00 0.00 10 1010.6
20260504014228 60 16 15.0 20.0 0.00 0.00 0.00 10 1010.3
20260504013726 62 55 10.0 11.0 0.00 0.00 0.00 10 1010.1
20260504013224 63 51 10.0 13.0 0.00 0.00 0.00 10 1010.1
20260504012720 63 11 8.0 10.0 0.00 0.00 0.00 10 1009.9
20260504012218 64 29 9.0 10.0 0.00 0.00 0.00 10 1009.9
20260504011715 64 10 7.0 9.0 0.00 0.00 0.00 10 1009.7
20260504011212 64 8 8.0 9.0 0.00 0.00 0.00 10 1009.8
20260504010708 64 6 9.0 10.0 0.00 0.00 0.00 10 1009.7
20260504010203 64 2 11.0 13.0 0.00 0.00 0.00 10 1009.9
20260504005700 64 266 7.0 9.0 0.00 0.00 0.00 10 1009.7
20260504005157 64 314 9.0 10.0 0.00 0.00 0.00 10 1009.6
20260504004655 64 6 7.0 9.0 0.00 0.00 0.00 10 1009.7
20260504004152 65 46 10.0 11.0 0.00 0.00 0.00 10 1009.8
20260504003648 65 34 7.0 9.0 0.00 0.00 0.00 10 1009.7
20260504003145 64 27 12.0 17.0 0.00 0.00 0.00 10 1009.4
20260504002642 64 2 16.0 20.0 0.00 0.00 0.00 10 1009.6
20260504002139 65 9 14.0 16.0 0.00 0.00 0.00 10 1009.5
20260504001637 65 331 13.0 15.0 0.00 0.00 0.00 10 1009.5
20260504001133 65 27 11.0 16.0 0.00 0.00 0.00 10 1009.1
20260504000630 65 18 12.0 16.0 0.00 0.00 0.00 10 1009.5
20260504000127 65 327 12.0 16.0 0.00 0.00 0.00 10 1009.4
20260503235626 65 35 5.0 7.0 0.00 0.00 0.00 10 1009.0
20260503235122 66 342 11.0 15.0 0.00 0.00 0.00 10 1008.9
20260503234620 65 41 11.0 16.0 0.00 0.00 0.00 10 1008.9
20260503234118 65 340 9.0 9.0 0.00 0.00 0.00 10 1008.9
20260503233615 65 10 15.0 20.0 0.00 0.00 0.00 10 1008.7
20260503233110 65 96 12.0 15.0 0.00 0.00 0.00 10 1008.6
20260503232607 66 14 14.0 18.0 0.00 0.00 0.00 10 1009.0
20260503232105 66 18 10.0 13.0 0.00 0.00 0.00 10 1008.8
20260503231603 66 4 17.0 20.0 0.00 0.00 0.00 10 1008.9
20260503231059 67 24 11.0 15.0 0.00 0.00 0.00 10 1008.6
20260503230555 67 34 18.0 25.0 0.00 0.00 0.00 10 1008.8
20260503230053 68 196 11.0 15.0 0.00 0.00 0.00 10 1008.3
20260503225550 67 1 11.0 17.0 0.00 0.00 0.00 10 1008.6
20260503225045 68 7 12.0 15.0 0.00 0.00 0.00 10 1008.2
20260503224543 67 10 12.0 14.0 0.00 0.00 0.00 10 1008.3
20260503224040 69 10 12.0 16.0 0.00 0.00 0.00 10 1008.2
20260503223538 69 29 10.0 15.0 0.00 0.00 0.00 10 1008.0
20260503223033 71 92 5.0 7.0 0.00 0.00 0.00 10 1007.9
20260503222532 70 90 10.0 13.0 0.00 0.00 0.00 10 1008.0
20260503222030 70 49 6.0 9.0 0.00 0.00 0.00 10 1008.1
20260503221528 70 61 12.0 15.0 0.00 0.00 0.00 10 1008.0
20260503221025 70 66 2.0 3.0 0.00 0.00 0.00 10 1007.8
20260503220521 70 46 8.0 11.0 0.00 0.00 0.00 10 1007.9
20260503220018 70 303 4.0 8.0 0.00 0.00 0.00 10 1008.1
20260503215515 70 40 9.0 10.0 0.00 0.00 0.00 10 1007.9
20260503215012 71 359 7.0 8.0 0.00 0.00 0.00 10 1008.0
20260503214510 69 36 14.0 17.0 0.00 0.00 0.00 10 1008.3
20260503214006 69 24 9.0 14.0 0.00 0.00 0.00 10 1008.0
20260503213505 70 51 10.0 13.0 0.00 0.00 0.00 10 1008.2
20260503213001 70 31 10.0 14.0 0.00 0.00 0.00 10 1008.3
20260503212459 70 38 13.0 18.0 0.00 0.00 0.00 10 1008.2
20260503211956 70 48 12.0 15.0 0.00 0.00 0.00 10 1008.3
20260503211453 70 301 7.0 9.0 0.00 0.00 0.00 10 1008.2
20260503210948 72 304 10.0 11.0 0.00 0.00 0.00 10 1008.5
20260503210445 71 239 17.0 21.0 0.00 0.00 0.00 10 1008.1
20260503205940 72 243 9.0 11.0 0.00 0.00 0.00 10 1008.2
20260503205437 71 254 13.0 17.0 0.00 0.00 0.00 10 1008.0
20260503204933 71 206 9.0 13.0 0.00 0.00 0.00 10 1007.9
20260503204431 71 154 10.0 11.0 0.00 0.00 0.00 10 1008.2
20260503203928 70 180 4.0 5.0 0.00 0.00 0.00 10 1008.6
20260503203425 68 163 4.0 7.0 0.00 0.00 0.00 10 1008.5
20260503202921 70 182 6.0 8.0 0.00 0.00 0.00 10 1008.6
20260503202420 70 182 2.0 2.0 0.00 0.00 0.00 10 1008.9
20260503201918 69 177 5.0 7.0 0.00 0.00 0.00 10 1009.0
20260503201415 68 180 3.0 3.0 0.00 0.00 0.00 10 1009.0
20260503200912 66 229 9.0 10.0 0.00 0.00 0.00 10 1009.0
20260503200408 67 199 7.0 10.0 0.00 0.00 0.00 10 1009.4
20260503195905 66 208 9.0 10.0 0.00 0.00 0.00 10 1009.1
20260503195402 66 210 8.0 16.0 0.00 0.00 0.00 10 1009.4
20260503194859 66 196 8.0 11.0 0.00 0.00 0.00 10 1009.4
20260503194355 68 174 7.0 10.0 0.00 0.00 0.00 10 1009.7
20260503193851 66 165 6.0 7.0 0.00 0.00 0.00 10 1009.6
20260503193347 67 173 6.0 7.0 0.00 0.00 0.00 10 1009.5
20260503192843 67 203 8.0 10.0 0.00 0.00 0.00 10 1009.8
20260503192339 66 169 10.0 15.0 0.00 0.00 0.00 10 1010.1
20260503191835 67 176 6.0 8.0 0.00 0.00 0.00 10 1010.0
20260503191333 64 200 7.0 10.0 0.00 0.00 0.00 10 1010.1
20260503190829 65 184 8.0 10.0 0.00 0.00 0.00 10 1010.0
20260503190326 66 235 8.0 10.0 0.00 0.00 0.00 10 1010.1
20260503185823 68 190 8.0 9.0 0.00 0.00 0.00 10 1010.3
20260503185319 66 163 5.0 7.0 0.00 0.00 0.00 10 1010.5
20260503184814 65 186 5.0 6.0 0.00 0.00 0.00 10 1010.4
20260503184310 66 190 5.0 8.0 0.00 0.00 0.00 10 1010.4
20260503183806 65 155 6.0 7.0 0.00 0.00 0.00 10 1010.8
20260503183304 65 207 7.0 8.0 0.00 0.00 0.00 10 1010.9
20260503182801 68 224 4.0 6.0 0.00 0.00 0.00 10 1010.9
20260503182300 67 155 5.0 7.0 0.00 0.00 0.00 10 1010.8
20260503181756 66 237 5.0 6.0 0.00 0.00 0.00 10 1010.9
20260503181253 66 222 5.0 6.0 0.00 0.00 0.00 10 1011.0
20260503180750 66 311 7.0 9.0 0.00 0.00 0.00 10 1011.2
20260503180248 66 232 6.0 7.0 0.00 0.00 0.00 10 1011.0
20260503175744 66 308 10.0 11.0 0.00 0.00 0.00 10 1011.4
20260503175242 65 235 6.0 8.0 0.00 0.00 0.00 10 1011.3
20260503174738 65 293 6.0 8.0 0.00 0.00 0.00 10 1011.2
20260503174237 67 211 5.0 7.0 0.00 0.00 0.00 10 1011.4
20260503173736 65 168 4.0 5.0 0.00 0.00 0.00 10 1011.8
20260503173233 64 214 3.0 5.0 0.00 0.00 0.00 10 1011.5
20260503172730 63 185 2.0 5.0 0.00 0.00 0.00 10 1011.7
20260503172227 61 192 3.0 5.0 0.00 0.00 0.00 10 1011.7
20260503171723 62 183 2.0 2.0 0.00 0.00 0.00 10 1011.9
20260503171220 62 168 1.0 1.0 0.00 0.00 0.00 10 1011.9
20260503170717 59 179 7.0 9.0 0.00 0.00 0.00 10 1012.1
20260503170214 59 185 5.0 7.0 0.00 0.00 0.00 10 1012.1
20260503160136 59 192 9.0 10.0 0.00 0.00 0.00 10 1012.3
20260503150606 54 175 3.0 6.0 0.00 0.00 0.00 10 1013.1
20260503130955 36 270 5.0 6.0 0.00 0.00 0.00 10 1013.4
20260503130453 36 264 5.0 6.0 0.00 0.00 0.00 10 1013.3
20260503110344 34 214 2.0 2.0 0.00 0.00 0.00 10 1014.1
20260503090235 37 272 4.0 5.0 0.00 0.00 0.00 10 1013.7
20260503081202 39 300 5.0 6.0 0.00 0.00 0.00 10 1013.7
20260503080658 39 209 2.0 2.0 0.00 0.00 0.00 10 1013.5
20260503080155 39 228 3.0 3.0 0.00 0.00 0.00 10 1013.6
20260503072632 41 180 0.0 1.0 0.00 0.00 0.00 10 1013.6
20260503072129 40 185 0.0 1.0 0.00 0.00 0.00 10 1013.7
20260503071625 40 259 2.0 2.0 0.00 0.00 0.00 10 1013.7
20260503071122 40 196 1.0 1.0 0.00 0.00 0.00 10 1013.9
20260503070619 41 246 4.0 5.0 0.00 0.00 0.00 10 1013.9
20260503070118 41 256 3.0 3.0 0.00 0.00 0.00 10 1013.9